| time (UTC) | temp F | wind direction | speed knots | gust knots | rain 1hr in | rain 24hr in | rain mn in | humidity % | barometer mb |
| 20260504175038 | 71 | 180 | 4.3 | 11.3 | 0.00 | 0.00 | 0.00 | 34 | 1002.1 |
| 20260504174527 | 71 | 240 | 3.5 | 11.3 | 0.00 | 0.00 | 0.00 | 35 | 1002.2 |
| 20260504173359 | 70 | 221 | 3.5 | 12.2 | 0.00 | 0.00 | 0.00 | 35 | 1002.4 |
| 20260504172848 | 70 | 228 | 2.6 | 12.2 | 0.00 | 0.00 | 0.00 | 36 | 1002.4 |
| 20260504172330 | 71 | 142 | 1.7 | 10.4 | 0.00 | 0.00 | 0.00 | 36 | 1002.5 |
| 20260504171811 | 70 | 190 | 2.6 | 10.4 | 0.00 | 0.00 | 0.00 | 35 | 1002.6 |
| 20260504171314 | 70 | 210 | 3.5 | 12.2 | 0.00 | 0.00 | 0.00 | 35 | 1002.6 |
| 20260504170819 | 69 | 217 | 3.5 | 12.2 | 0.00 | 0.00 | 0.00 | 35 | 1002.6 |
| 20260504170327 | 69 | 250 | 4.3 | 12.2 | 0.00 | 0.00 | 0.00 | 35 | 1002.8 |
| 20260504150813 | 67 | 262 | 1.7 | 11.3 | 0.00 | 0.00 | 0.00 | 39 | 1004.2 |
| 20260504150321 | 66 | 161 | 3.5 | 11.3 | 0.00 | 0.00 | 0.00 | 36 | 1004.2 |
| 20260504141058 | 64 | 169 | 0.9 | 7.8 | 0.00 | 0.00 | 0.00 | 45 | 1004.5 |
| 20260504140554 | 63 | 197 | 1.7 | 7.8 | 0.00 | 0.00 | 0.00 | 46 | 1004.5 |
| 20260504130726 | 59 | 182 | 0.9 | 7.0 | 0.00 | 0.00 | 0.00 | 56 | 1005.2 |
| 20260504130222 | 58 | 275 | 0.9 | 7.0 | 0.00 | 0.00 | 0.00 | 57 | 1005.2 |
| 20260504100555 | 38 | 355 | 0.0 | 0.0 | 0.00 | 0.00 | 0.00 | 86 | 1005.4 |
| 20260504081722 | 39 | 212 | 0.0 | 0.0 | 0.00 | 0.00 | 0.00 | 82 | 1005.2 |
| 20260504080551 | 39 | 212 | 0.0 | 0.0 | 0.00 | 0.00 | 0.00 | 82 | 1005.2 |
| 20260504070221 | 40 | 212 | 0.0 | 0.0 | 0.00 | 0.00 | 0.00 | 80 | 1005.0 |
| 20260504050547 | 41 | 212 | 0.0 | 0.0 | 0.00 | 0.00 | 0.00 | 77 | 1004.6 |
| 20260504045511 | 42 | 212 | 0.0 | 0.0 | 0.00 | 0.00 | 0.00 | 77 | 1004.6 |
| 20260504045001 | 42 | 212 | 0.0 | 0.0 | 0.00 | 0.00 | 0.00 | 76 | 1004.6 |
| 20260504044509 | 42 | 212 | 0.0 | 0.0 | 0.00 | 0.00 | 0.00 | 75 | 1004.6 |
| 20260504044010 | 42 | 212 | 0.0 | 0.0 | 0.00 | 0.00 | 0.00 | 75 | 1004.7 |
| 20260504043515 | 42 | 212 | 0.0 | 0.0 | 0.00 | 0.00 | 0.00 | 74 | 1004.7 |
| 20260504042956 | 42 | 212 | 0.0 | 0.0 | 0.00 | 0.00 | 0.00 | 74 | 1004.6 |
| 20260504042502 | 42 | 212 | 0.0 | 0.0 | 0.00 | 0.00 | 0.00 | 74 | 1004.5 |
| 20260504041359 | 42 | 212 | 0.0 | 0.0 | 0.00 | 0.00 | 0.00 | 73 | 1004.3 |
| 20260504040234 | 43 | 212 | 0.0 | 0.0 | 0.00 | 0.00 | 0.00 | 72 | 1004.2 |
| 20260504034505 | 43 | 212 | 0.0 | 0.0 | 0.00 | 0.00 | 0.00 | 68 | 1004.2 |
| 20260504034001 | 43 | 212 | 0.0 | 0.0 | 0.00 | 0.00 | 0.00 | 68 | 1004.1 |
| 20260504033444 | 43 | 212 | 0.0 | 0.0 | 0.00 | 0.00 | 0.00 | 68 | 1004.1 |
| 20260504032948 | 44 | 212 | 0.0 | 0.0 | 0.00 | 0.00 | 0.00 | 69 | 1004.2 |
| 20260504032449 | 44 | 212 | 0.0 | 0.0 | 0.00 | 0.00 | 0.00 | 70 | 1004.1 |
| 20260504031936 | 44 | 212 | 0.0 | 0.0 | 0.00 | 0.00 | 0.00 | 69 | 1004.1 |
| 20260504031421 | 44 | 212 | 0.0 | 0.0 | 0.00 | 0.00 | 0.00 | 69 | 1004.0 |
| 20260504030921 | 44 | 212 | 0.0 | 0.0 | 0.00 | 0.00 | 0.00 | 69 | 1004.0 |
| 20260504030425 | 45 | 212 | 0.0 | 0.0 | 0.00 | 0.00 | 0.00 | 69 | 1003.9 |
| 20260504025932 | 45 | 212 | 0.0 | 0.0 | 0.00 | 0.00 | 0.00 | 69 | 1004.0 |
| 20260504025434 | 45 | 212 | 0.0 | 0.0 | 0.00 | 0.00 | 0.00 | 68 | 1004.0 |
| 20260504024922 | 45 | 212 | 0.0 | 0.0 | 0.00 | 0.00 | 0.00 | 68 | 1004.0 |
| 20260504024409 | 45 | 212 | 0.0 | 0.0 | 0.00 | 0.00 | 0.00 | 67 | 1004.0 |
| 20260504023906 | 46 | 212 | 0.0 | 0.0 | 0.00 | 0.00 | 0.00 | 66 | 1004.0 |
| 20260504023357 | 46 | 212 | 0.0 | 0.0 | 0.00 | 0.00 | 0.00 | 65 | 1003.9 |
| 20260504022853 | 46 | 212 | 0.0 | 0.0 | 0.00 | 0.00 | 0.00 | 64 | 1003.9 |
| 20260504021716 | 47 | 212 | 0.0 | 0.0 | 0.00 | 0.00 | 0.00 | 61 | 1003.9 |
| 20260504020555 | 48 | 212 | 0.0 | 0.0 | 0.00 | 0.00 | 0.00 | 58 | 1004.0 |
| 20260504020103 | 48 | 212 | 0.0 | 0.0 | 0.00 | 0.00 | 0.00 | 56 | 1004.0 |
| 20260504015554 | 49 | 212 | 0.0 | 0.0 | 0.00 | 0.00 | 0.00 | 54 | 1004.0 |
| 20260504015101 | 49 | 212 | 0.0 | 0.0 | 0.00 | 0.00 | 0.00 | 54 | 1003.9 |
| 20260504014609 | 50 | 212 | 0.0 | 0.0 | 0.00 | 0.00 | 0.00 | 53 | 1003.9 |
| 20260504014056 | 50 | 212 | 0.0 | 0.0 | 0.00 | 0.00 | 0.00 | 53 | 1003.8 |
| 20260504013544 | 51 | 212 | 0.0 | 0.0 | 0.00 | 0.00 | 0.00 | 52 | 1003.8 |
| 20260504013048 | 52 | 212 | 0.0 | 0.0 | 0.00 | 0.00 | 0.00 | 51 | 1003.7 |
| 20260504011933 | 53 | 212 | 0.0 | 0.0 | 0.00 | 0.00 | 0.00 | 47 | 1003.5 |
| 20260504010748 | 54 | 212 | 0.0 | 0.0 | 0.00 | 0.00 | 0.00 | 44 | 1003.4 |
| 20260504010258 | 55 | 212 | 0.0 | 0.0 | 0.00 | 0.00 | 0.00 | 45 | 1003.4 |
| 20260504005804 | 55 | 212 | 0.0 | 0.0 | 0.00 | 0.00 | 0.00 | 45 | 1003.3 |
| 20260504005251 | 56 | 212 | 0.0 | 0.0 | 0.00 | 0.00 | 0.00 | 43 | 1003.2 |
| 20260504004114 | 57 | 212 | 0.0 | 0.0 | 0.00 | 0.00 | 0.00 | 39 | 1003.2 |
| 20260504003614 | 57 | 212 | 0.0 | 0.0 | 0.00 | 0.00 | 0.00 | 39 | 1003.1 |
| 20260504003117 | 57 | 212 | 0.0 | 0.0 | 0.00 | 0.00 | 0.00 | 38 | 1003.0 |
| 20260504002607 | 58 | 212 | 0.0 | 0.0 | 0.00 | 0.00 | 0.00 | 37 | 1002.9 |
| 20260504002051 | 58 | 212 | 0.0 | 0.0 | 0.00 | 0.00 | 0.00 | 36 | 1002.8 |
| 20260504001549 | 58 | 212 | 0.0 | 0.0 | 0.00 | 0.00 | 0.00 | 35 | 1002.7 |
| 20260504001040 | 58 | 212 | 0.0 | 0.0 | 0.00 | 0.00 | 0.00 | 34 | 1002.6 |
| 20260503235901 | 59 | 225 | 0.0 | 3.5 | 0.00 | 0.00 | 0.00 | 33 | 1002.5 |
| 20260503235353 | 59 | 198 | 0.0 | 6.1 | 0.00 | 0.00 | 0.00 | 32 | 1002.5 |
| 20260503234852 | 59 | 198 | 0.9 | 6.1 | 0.00 | 0.00 | 0.00 | 32 | 1002.4 |
| 20260503234334 | 59 | 217 | 0.9 | 5.2 | 0.00 | 0.00 | 0.00 | 32 | 1002.3 |
| 20260503233845 | 60 | 188 | 0.9 | 5.2 | 0.00 | 0.00 | 0.00 | 33 | 1002.2 |
| 20260503233338 | 60 | 215 | 0.0 | 5.2 | 0.00 | 0.00 | 0.00 | 32 | 1002.2 |
| 20260503232841 | 60 | 244 | 0.0 | 2.6 | 0.00 | 0.00 | 0.00 | 32 | 1002.1 |
| 20260503230434 | 60 | 217 | 0.9 | 4.3 | 0.00 | 0.00 | 0.00 | 30 | 1002.0 |
| 20260503225943 | 60 | 248 | 0.9 | 4.3 | 0.00 | 0.00 | 0.00 | 31 | 1002.0 |
| 20260503225444 | 60 | 173 | 0.9 | 4.3 | 0.00 | 0.00 | 0.00 | 29 | 1001.9 |
| 20260503224942 | 61 | 315 | 0.9 | 6.1 | 0.00 | 0.00 | 0.00 | 31 | 1002.0 |
| 20260503224451 | 61 | 215 | 0.9 | 6.1 | 0.00 | 0.00 | 0.00 | 30 | 1002.0 |
| 20260503223311 | 61 | 209 | 1.7 | 6.1 | 0.00 | 0.00 | 0.00 | 30 | 1001.9 |
| 20260503222805 | 61 | 198 | 1.7 | 5.2 | 0.00 | 0.00 | 0.00 | 29 | 1001.9 |
| 20260503222249 | 62 | 177 | 0.9 | 0.9 | 0.00 | 0.00 | 0.00 | 28 | 1001.8 |
| 20260503221748 | 62 | 208 | 1.7 | 11.3 | 0.00 | 0.00 | 0.00 | 28 | 1001.7 |
| 20260503221257 | 62 | 211 | 1.7 | 11.3 | 0.00 | 0.00 | 0.00 | 27 | 1001.8 |
| 20260503220759 | 62 | 345 | 1.7 | 4.3 | 0.00 | 0.00 | 0.00 | 27 | 1001.7 |
| 20260503220306 | 62 | 217 | 2.6 | 8.7 | 0.00 | 0.00 | 0.00 | 26 | 1001.8 |
| 20260503215748 | 62 | 224 | 1.7 | 8.7 | 0.00 | 0.00 | 0.00 | 28 | 1001.7 |
| 20260503215243 | 63 | 20 | 1.7 | 8.7 | 0.00 | 0.00 | 0.00 | 28 | 1001.8 |
| 20260503214742 | 63 | 201 | 0.9 | 7.8 | 0.00 | 0.00 | 0.00 | 28 | 1001.8 |
| 20260503214224 | 63 | 182 | 0.0 | 6.1 | 0.00 | 0.00 | 0.00 | 28 | 1001.8 |
| 20260503213717 | 63 | 200 | 0.9 | 9.6 | 0.00 | 0.00 | 0.00 | 27 | 1001.7 |
| 20260503212537 | 62 | 5 | 0.9 | 10.4 | 0.00 | 0.00 | 0.00 | 29 | 1001.8 |
| 20260503212046 | 61 | 344 | 2.6 | 10.4 | 0.00 | 0.00 | 0.00 | 28 | 1001.8 |
| 20260503211529 | 61 | 205 | 3.5 | 11.3 | 0.00 | 0.00 | 0.00 | 28 | 1001.8 |
| 20260503211024 | 62 | 194 | 2.6 | 11.3 | 0.00 | 0.00 | 0.00 | 26 | 1001.8 |
| 20260503210524 | 62 | 350 | 2.6 | 11.3 | 0.00 | 0.00 | 0.00 | 27 | 1001.8 |
| 20260503210024 | 62 | 234 | 1.7 | 11.3 | 0.00 | 0.00 | 0.00 | 29 | 1001.7 |
| 20260503205504 | 62 | 329 | 2.6 | 10.4 | 0.00 | 0.00 | 0.00 | 27 | 1001.8 |
| 20260503204338 | 63 | 338 | 1.7 | 8.7 | 0.00 | 0.00 | 0.00 | 27 | 1001.7 |
| 20260503203224 | 62 | 342 | 1.7 | 10.4 | 0.00 | 0.00 | 0.00 | 28 | 1001.8 |
| 20260503202721 | 62 | 124 | 2.6 | 10.4 | 0.00 | 0.00 | 0.00 | 30 | 1001.8 |
| 20260503202222 | 62 | 318 | 2.6 | 12.2 | 0.00 | 0.00 | 0.00 | 26 | 1002.1 |
| 20260503201721 | 61 | 238 | 2.6 | 12.2 | 0.00 | 0.00 | 0.00 | 29 | 1002.1 |
| 20260503201206 | 61 | 346 | 2.6 | 13.0 | 0.00 | 0.00 | 0.00 | 29 | 1002.0 |
| 20260503200646 | 61 | 193 | 1.7 | 13.0 | 0.00 | 0.00 | 0.00 | 29 | 1002.1 |
| 20260503195544 | 61 | 291 | 2.6 | 13.0 | 0.00 | 0.00 | 0.00 | 28 | 1002.2 |
| 20260503195048 | 61 | 329 | 2.6 | 10.4 | 0.00 | 0.00 | 0.00 | 32 | 1002.3 |
| 20260503194536 | 60 | 9 | 2.6 | 10.4 | 0.00 | 0.00 | 0.00 | 29 | 1002.4 |
| 20260503194023 | 60 | 182 | 1.7 | 10.4 | 0.00 | 0.00 | 0.00 | 30 | 1002.2 |
| 20260503193514 | 60 | 252 | 0.9 | 9.6 | 0.00 | 0.00 | 0.00 | 29 | 1002.2 |
| 20260503193007 | 59 | 340 | 1.7 | 9.6 | 0.00 | 0.00 | 0.00 | 29 | 1002.3 |
| 20260503192448 | 59 | 350 | 2.6 | 13.0 | 0.00 | 0.00 | 0.00 | 30 | 1002.5 |
| 20260503191940 | 59 | 203 | 2.6 | 13.0 | 0.00 | 0.00 | 0.00 | 31 | 1002.6 |
| 20260503191444 | 59 | 17 | 1.7 | 13.0 | 0.00 | 0.00 | 0.00 | 31 | 1002.5 |
| 20260503190326 | 59 | 187 | 2.6 | 12.2 | 0.00 | 0.00 | 0.00 | 32 | 1002.5 |
| 20260503185828 | 60 | 338 | 2.6 | 12.2 | 0.00 | 0.00 | 0.00 | 30 | 1002.7 |
| 20260503185336 | 60 | 5 | 2.6 | 16.5 | 0.00 | 0.00 | 0.00 | 30 | 1002.7 |
| 20260503184817 | 60 | 350 | 2.6 | 16.5 | 0.00 | 0.00 | 0.00 | 31 | 1002.7 |
| 20260503183655 | 60 | 180 | 1.7 | 16.5 | 0.00 | 0.00 | 0.00 | 31 | 1002.7 |
| 20260503183156 | 59 | 165 | 0.9 | 7.8 | 0.00 | 0.00 | 0.00 | 35 | 1002.9 |
| 20260503182659 | 59 | 331 | 1.7 | 7.8 | 0.00 | 0.00 | 0.00 | 32 | 1002.9 |
| 20260503182208 | 58 | 345 | 1.7 | 12.2 | 0.00 | 0.00 | 0.00 | 33 | 1002.8 |
| 20260503181703 | 57 | 208 | 2.6 | 12.2 | 0.00 | 0.00 | 0.00 | 35 | 1002.9 |
| 20260503181154 | 57 | 199 | 3.5 | 12.2 | 0.00 | 0.00 | 0.00 | 34 | 1002.8 |
| 20260503180654 | 59 | 347 | 2.6 | 12.2 | 0.00 | 0.00 | 0.00 | 31 | 1002.9 |
| 20260503175536 | 58 | 148 | 2.6 | 9.6 | 0.00 | 0.00 | 0.00 | 34 | 1003.0 |